TimeEDT,TemperatureF,Dew PointF,Humidity,Sea Level PressureIn,VisibilityMPH,Wind Direction,Wind SpeedMPH,Gust SpeedMPH,PrecipitationIn,Events,Conditions,WindDirDegrees,DateUTC
12:53 AM,41.0,39.0,93,30.19,9.0,Calm,Calm,-,N/A,,Overcast,0,2012-10-08 04:53:00
1:53 AM,39.9,37.0,89,30.19,10.0,SSE,4.6,-,N/A,,Mostly Cloudy,150,2012-10-08 05:53:00
2:53 AM,37.9,36.0,93,30.19,7.0,Calm,Calm,-,N/A,,Clear,0,2012-10-08 06:53:00
3:53 AM,37.9,37.0,97,30.21,7.0,Calm,Calm,-,N/A,,Clear,0,2012-10-08 07:53:00
4:35 AM,37.4,35.6,93,30.21,2.0,Calm,Calm,-,N/A,,Partly Cloudy,0,2012-10-08 08:35:00
4:39 AM,37.4,35.6,93,30.21,1.0,Calm,Calm,-,N/A,,Mist,0,2012-10-08 08:39:00
4:46 AM,37.4,35.6,93,30.22,0.5,Calm,Calm,-,N/A,Fog,Fog,0,2012-10-08 08:46:00
4:53 AM,37.0,36.0,96,30.23,1.2,South,3.5,-,N/A,,Mostly Cloudy,180,2012-10-08 08:53:00
4:56 AM,37.4,35.6,93,30.23,3.0,Calm,Calm,-,N/A,,Mostly Cloudy,0,2012-10-08 08:56:00
5:06 AM,37.4,35.6,93,30.23,7.0,Calm,Calm,-,N/A,,Scattered Clouds,0,2012-10-08 09:06:00
5:53 AM,37.9,37.0,97,30.24,5.0,Calm,Calm,-,N/A,,Partly Cloudy,0,2012-10-08 09:53:00
6:53 AM,37.9,37.0,97,30.24,7.0,Calm,Calm,-,N/A,,Clear,0,2012-10-08 10:53:00
7:53 AM,37.9,37.0,97,30.23,7.0,NE,3.5,-,N/A,,Clear,40,2012-10-08 11:53:00
8:39 AM,39.2,37.4,93,30.25,6.0,Calm,Calm,-,N/A,,Partly Cloudy,0,2012-10-08 12:39:00
8:53 AM,39.9,37.9,93,30.26,8.0,Calm,Calm,-,N/A,,Partly Cloudy,0,2012-10-08 12:53:00
9:53 AM,42.1,39.0,89,30.25,10.0,Calm,Calm,-,N/A,,Clear,0,2012-10-08 13:53:00
10:53 AM,43.0,39.0,86,30.26,10.0,Calm,Calm,-,N/A,,Mostly Cloudy,0,2012-10-08 14:53:00
11:53 AM,45.0,39.0,80,30.25,10.0,Calm,Calm,-,N/A,,Overcast,0,2012-10-08 15:53:00
12:53 PM,46.0,37.0,71,30.26,10.0,ESE,3.5,-,N/A,,Overcast,110,2012-10-08 16:53:00
1:53 PM,45.0,37.0,74,30.24,8.0,SE,4.6,-,N/A,Rain,Light Rain,130,2012-10-08 17:53:00
2:05 PM,44.6,39.2,81,30.25,9.0,South,6.9,-,N/A,Rain,Light Rain,180,2012-10-08 18:05:00
2:31 PM,44.6,41.0,87,30.23,5.0,South,6.9,-,N/A,Rain,Light Rain,180,2012-10-08 18:31:00
2:53 PM,44.1,41.0,89,30.25,10.0,South,5.8,-,N/A,,Overcast,180,2012-10-08 18:53:00
3:53 PM,45.0,41.0,86,30.24,10.0,South,3.5,-,N/A,,Overcast,190,2012-10-08 19:53:00
4:21 PM,44.6,41.0,87,30.22,10.0,Calm,Calm,-,N/A,,Overcast,0,2012-10-08 20:21:00
4:35 PM,46.4,41.0,81,30.22,10.0,Calm,Calm,-,N/A,,Overcast,0,2012-10-08 20:35:00
4:53 PM,45.0,41.0,86,30.22,10.0,South,3.5,-,N/A,Rain,Light Rain,170,2012-10-08 20:53:00
5:03 PM,44.6,41.0,87,30.21,10.0,SE,4.6,-,N/A,,Overcast,130,2012-10-08 21:03:00
5:53 PM,45.0,39.9,82,30.21,10.0,Variable,3.5,-,N/A,,Overcast,0,2012-10-08 21:53:00
6:00 PM,44.6,39.2,81,30.20,10.0,Calm,Calm,-,N/A,,Overcast,0,2012-10-08 22:00:00
6:07 PM,44.6,39.2,81,30.21,10.0,Calm,Calm,-,N/A,,Overcast,0,2012-10-08 22:07:00
6:53 PM,45.0,39.9,82,30.20,10.0,SE,4.6,-,N/A,,Overcast,130,2012-10-08 22:53:00
7:53 PM,45.0,39.9,82,30.19,10.0,Calm,Calm,-,N/A,,Overcast,0,2012-10-08 23:53:00
8:53 PM,45.0,41.0,86,30.20,10.0,Calm,Calm,-,N/A,,Overcast,0,2012-10-09 00:53:00
10:53 PM,44.1,41.0,89,30.20,10.0,Calm,Calm,-,N/A,,Overcast,0,2012-10-09 02:53:00
11:53 PM,45.0,41.0,86,30.19,10.0,Calm,Calm,-,N/A,,Overcast,0,2012-10-09 03:53:00